Regional Weather Roundup
Issued by NWS

Home | Current Version | Previous Version | Graphics & Text | Print | Product List | Glossary On
Versions: 1 2 3 4 5 6 7 8 9 10 11 12 13 14 15 16 17 18 19 20 21 22 23 24 25 26 27 28 29 30 31 32 33 34 35 36 37 38 39 40 41 42 43 44 45 46 47 48 49 50
000
ASUS45 KSLC 221410
RWRUT

UTAH REGIONAL WEATHER ROUNDUP
NATIONAL WEATHER SERVICE SALT LAKE CITY UT
700 AM MST MON DEC 22 2014

UTZ001>011-023>025-221500-

NORTHERN UTAH

CITY           SKY/WX    TMP DP  RH WIND       PRES   REMARKS
BRIGHAM CITY   CLOUDY    39  33  79 NE3       29.99S
HILL AFB       CLOUDY    38  37  99 S9        29.98S WCI  31
LOGAN          CLOUDY    38  32  79 N5        29.97S WCI  34
OGDEN          LGT RAIN  39  37  92 S8        29.98R WCI  33
PROVO AIRPORT  CLOUDY    36  34  93 SW7       30.02R WCI  30
SALT LAKE CITY LGT RAIN  38  37  97 SE7       29.99F FOG     WCI  33
VERNAL         LGT RAIN  35  32  88 W3        29.87S
WENDOVER       CLOUDY    41  36  81 E8        30.01R
HEBER CITY     LGT SNOW  32  32 100 CALM      29.95R
WEST JORDAN    CLOUDY    34  34 100 SW6       30.01S WCI  29

$$

UTZ012>022-026-027-221500-

SOUTHERN/CENTRAL UTAH

CITY           SKY/WX    TMP DP  RH WIND       PRES   REMARKS
BLANDING       CLEAR     34  31  92 SW8       30.00S WCI  27
BRYCE CANYON   MOCLDY    32  30  92 NE8       30.06S WCI  25
CEDAR CITY     CLEAR     37  32  82 SE9       30.05S WCI  30
DELTA          CLOUDY    40  39  99 CALM      30.01S
MILFORD        MOCLDY    29  27  92 S9        30.02S WCI  20
MOAB/CYNLANDS  CLEAR     30  29  96 CALM      29.90R
PRICE          LGT RAIN  39  31  72 NW6       29.91R WCI  35
ST GEORGE      CLOUDY    36  30  80 CALM      30.09S
KANAB          CLEAR     30  30 100 NE5       30.09F WCI  25

$$

REGIONAL REPORTS     COLORADO/ARIZONA

CITY           SKY/WX    TMP DP  RH WIND       PRES   REMARKS
CRAIG, CO      CLOUDY    32  26  78 W15       29.84F WCI  22
GRAND JUNCTION CLOUDY    32  31  96 NE7       29.87F WCI  26
RIFLE          LGT RAIN  35  31  85 SW7       29.87S WCI  29
MONTROSE       CLOUDY    33  31  92 SE6       29.88F WCI  28
CORTEZ         PTCLDY    34  31  88 CALM      29.93F
PAGE, AZ       CLEAR     42  33  70 CALM      29.98R
GRAND CANYON   PTCLDY    22  20  92 CALM      30.08F
KINGMAN        CLEAR     33  31  92 E5        30.08F WCI  29
FLAGSTAFF      CLEAR     41  31  67 W5        30.09R

$$

REGIONAL REPORTS    NEVADA/IDAHO/WYOMING

CITY           SKY/WX    TMP DP  RH WIND       PRES   REMARKS
LAS VEGAS, NV  PTCLDY    47  38  71 CALM      30.04R
ELY            CLOUDY    44  35  70 E7        30.13F
ELKO           CLOUDY    44  40  85 SW12      30.10R
POCATELLO, ID  CLOUDY    35  35 100 W12G22    29.98S WCI  27
BURLEY         CLOUDY    37  35  92 W20G28    30.00R WCI  27
EVANSTON, WY   LGT SNOW  30  29  96 W13       29.91S FOG     WCI  20
ROCK SPRINGS   CLOUDY    27  22  81 W14       29.84S WCI  16
KEMMERER       LGT SNOW  28  27  93 W10       29.87S WCI  19

$$


USA.gov is the U.S. government's official web portal to all federal, state and local government web resources and services.